sat.trackr.live / text

‹ back to catalog

STARLINK-37077

NORAD 68169 · 2026-050C

PAYLOAD ACTIVE UNKNOWN

§ Identity

Operator
Country
US
Launch date
2026-03-14
Launch site
AFETR
Launch vehicle
Mass (kg)
RCS (m²)

Purposes: comms

External: N2YO · Heavens-Above · Gunter

§ Orbital elements

Epoch: 2026-09-19T21:48:10.307232Z

Period
93.85 min
Inclination
53.1588°
Eccentricity
0.0000043
Mean motion
15.34404906 rev/d
Perigee alt
462.7 km
Apogee alt
462.7 km
Semi-major
6,840.8 km
B*
4.5427e-4
RAAN
80.7493°
Arg perigee
212.4635°
Mean anomaly
147.6365°
Rev number
3,047

§ Raw data

STARLINK-370771 68169U 26050C   26262.90845263  .00015006  00000+0  45427-3 0  99942 68169  53.1588  80.7493 0000043 212.4635 147.6365 15.34404906 30475

JSON: /api/v1/satellites/68169 · /tle

For live sub-satellite position, see the globe view (requires WebGL).

§ Visibility from observer

Set your observer location to see the next 7 days of passes ≥ 10°. The values pass through the URL so the page stays shareable.

No JS? Fill the form by hand. The geolocation button needs JavaScript.